Tracking 30101 objects as of 14-Dec-2024
HD Live streaming from Space Station
objects crossing your sky now

OPS 7518 (NTS 1)

Track OPS 7518 (NTS 1) now!
10-day predictions
OPS 7518 (NTS 1) is classified as:


NORAD ID: 7369
Int'l Code: 1974-054A
Perigee: 13,483.7 km
Apogee: 13,750.8 km
Inclination: 124.7 °
Period: 468.7 minutes
Semi major axis: 19988 km
RCS: 0.8 m2 (medium)
Launch date: July 14, 1974
Source: United States (US)
Launch site: AIR FORCE WESTERN TEST RANGE (AFWTR)
Your satellite tracking list
Your tracking list is empty




NASA's NSSDC Master Catalog

Two Line Element Set (TLE):
1 07369U 74054A   24344.66938565  .00000031  00000-0  00000-0 0  9994
2 07369 124.6547 183.1310 0066827  42.8809  28.0278  3.07214347565580
Source of the keplerian elements: AFSPC